Starlink 32844

operational
NORAD ID: 62820 Int'l Des: 2025-018 Owner: SPXS Country: US Constellation: starlink
LEOCIRCULAR

About Starlink 32844

Description loading...

Live Position

Loading 3D Globe...

Upcoming Passes

Altitude History

Altitude vs Time

uPlot chart will show altitude changes over time

Two-Line Element Set

1 62820U 25018Q 25350.25341620 .00014717 00000-0 50804-3 0 9992
2 62820 53.1605 337.1691 0001241 85.6280 274.4862 15.30199747 50393
Epoch: Dec 16, 2025 • Age: 20 hours

Current Status

Altitude 476.3 km
Velocity 7.63 km/s
Sub-Earth Point -2.10°S, 151.04°W
Launch Date Jan 24, 2025
Age 0.8 years
Type internet

Technical Details

Classification Payload
Mass 730.00 kg
Dry Mass 700.00 kg
Total Mass 730.00 kg
Length 0.30 m
Diameter 4.10 m
Span 29.00 m
Shape Box + pan
Manufacturer SPXS
Bus Type Starlink V2M
Phase Status In Orbit
Owner/State SPXS/US

Large Constellations

Loading constellations...